South St. Paul, MN

7:02 PM CDT on September 25, 2017 (GMT -0500)
South Saint Paul Municipal-Fleming

Weather History for KSGS - January, 2013

Change the Weather History Date:

Sunday, January 6, 2013

  Actual Average (KSTP) Record (KSTP)
Temperature  
Mean Temperature 18 °F -  
Max Temperature 24 °F 23 °F 46 °F (2012)
Min Temperature 13 °F 9 °F -20 °F (2014)
Degree Days  
Heating Degree Days 46    
Moisture  
Dew Point 11 °F    
Average Humidity 73    
Maximum Humidity 86    
Minimum Humidity 55    
Precipitation  
Precipitation 0.00 in - - ()
Sea Level Pressure  
Sea Level Pressure 30.14 in    
Wind  
Wind Speed 6 mph (West)    
Max Wind Speed 10 mph    
Max Gust Speed -    
Visibility 10 miles    
Events      
Averages and records for this station are not official NWS values.
T = Trace of Precipitation, MM = Missing Value Source: NWS Daily Summary

Daily Weather History Graph

Daily Weather History Graph

Search for Another Location

Airport or City:

Trip Planner

Search our weather history database for the weather conditions in past years. The results will help you decide how hot, cold, wet, or windy it might be!

Date:

Astronomy

Jan. 06, 2013 Rise Set
Actual Time 7:49 AM CST 4:47 PM CST
Civil Twilight 7:16 AM CST 5:20 PM CST
Nautical Twilight 6:39 AM CST 5:57 PM CST
Astronomical Twilight 6:04 AM CST 6:32 PM CST
Moon 1:58 AM CST (1/6) 12:19 PM CST (1/6)
Length of Visible Light 10h 04m
Length of Day
8h 57m
Waning Crescent, 33% of the Moon is Illuminated
Jan 6
Waning Crescent
Jan 11
New
Jan 18
First Quarter
Jan 26
Full
Feb 3
Last Quarter

Hourly Weather History & Observations

Time (CST) Temp. Windchill Dew Point Humidity Pressure Visibility Wind Dir Wind Speed Gust Speed Precip Events Conditions
12:12 AM 21.9 °F 15.7 °F 16.5 °F 80% 30.00 in 10.0 mi WNW 4.6 mph - N/A   Scattered Clouds
12:32 AM 22.1 °F 15.9 °F 16.7 °F 80% 30.01 in 10.0 mi WNW 4.6 mph - N/A   Overcast
12:52 AM 22.1 °F 12.0 °F 16.7 °F 80% 30.02 in 10.0 mi WNW 9.2 mph - N/A   Overcast
1:12 AM 22.6 °F 12.6 °F 17.2 °F 80% 30.02 in 10.0 mi WNW 9.2 mph - N/A   Overcast
1:32 AM 22.3 °F 13.0 °F 16.7 °F 79% 30.02 in 10.0 mi WNW 8.1 mph - N/A   Scattered Clouds
1:52 AM 20.7 °F 11.0 °F 15.6 °F 81% 30.03 in 10.0 mi WNW 8.1 mph - N/A   Clear
2:12 AM 19.9 °F 12.1 °F 15.3 °F 82% 30.04 in 10.0 mi WNW 5.8 mph - N/A   Clear
2:32 AM 19.4 °F 10.4 °F 14.9 °F 83% 30.04 in 10.0 mi WNW 6.9 mph - N/A   Clear
2:52 AM 19.4 °F 8.6 °F 15.3 °F 84% 30.05 in 10.0 mi WNW 9.2 mph - N/A   Clear
3:12 AM 19.4 °F 8.6 °F 14.9 °F 83% 30.06 in 10.0 mi WNW 9.2 mph - N/A   Clear
3:32 AM 19.4 °F 10.4 °F 14.9 °F 83% 30.06 in 10.0 mi NW 6.9 mph - N/A   Clear
4:12 AM 20.7 °F 9.5 °F 15.8 °F 81% 30.07 in 10.0 mi NW 10.4 mph - N/A   Scattered Clouds
4:32 AM 20.3 °F 9.8 °F 15.6 °F 82% 30.07 in 10.0 mi NW 9.2 mph - N/A   Overcast
4:52 AM 20.3 °F 9.0 °F 15.6 °F 82% 30.09 in 10.0 mi WNW 10.4 mph - N/A   Mostly Cloudy
5:12 AM 19.4 °F 10.4 °F 14.9 °F 83% 30.09 in 10.0 mi WNW 6.9 mph - N/A   Mostly Cloudy
5:32 AM 18.5 °F 11.7 °F 14.4 °F 84% 30.09 in 10.0 mi WNW 4.6 mph - N/A   Scattered Clouds
6:32 AM 17.1 °F 7.6 °F 13.5 °F 86% 30.13 in 10.0 mi NW 6.9 mph - N/A   Clear
6:52 AM 16.3 °F 7.8 °F 12.6 °F 85% 30.14 in 10.0 mi NW 5.8 mph - N/A   Clear
7:12 AM 15.8 °F 8.6 °F 11.8 °F 84% 30.15 in 10.0 mi WNW 4.6 mph - N/A   Clear
7:32 AM 15.4 °F 9.8 °F 10.9 °F 82% 30.16 in 10.0 mi WNW 3.5 mph - N/A   Clear
7:52 AM 14.5 °F 5.7 °F 9.5 °F 80% 30.16 in 10.0 mi WNW 5.8 mph - N/A   Clear
8:12 AM 14.4 °F 6.9 °F 8.6 °F 78% 30.17 in 10.0 mi WNW 4.6 mph - N/A   Clear
8:32 AM 14.5 °F 5.7 °F 8.2 °F 76% 30.18 in 10.0 mi WNW 5.8 mph - N/A   Clear
8:52 AM 14.9 °F 6.1 °F 7.7 °F 73% 30.19 in 10.0 mi WNW 5.8 mph - N/A   Clear
9:12 AM 15.4 °F 8.1 °F 7.7 °F 71% 30.19 in 10.0 mi NW 4.6 mph - N/A   Clear
9:32 AM 16.0 °F 7.4 °F 7.7 °F 70% 30.19 in 10.0 mi NW 5.8 mph - N/A   Clear
9:52 AM 16.9 °F 7.4 °F 7.7 °F 67% 30.20 in 10.0 mi NW 6.9 mph - N/A   Clear
10:12 AM 17.6 °F 9.3 °F 7.7 °F 65% 30.20 in 10.0 mi NW 5.8 mph - N/A   Clear
10:32 AM 18.3 °F 11.5 °F 8.2 °F 65% 30.20 in 10.0 mi NNW 4.6 mph - N/A   Clear
10:52 AM 19.2 °F 11.3 °F 8.6 °F 63% 30.22 in 10.0 mi NW 5.8 mph - N/A   Clear
11:12 AM 19.9 °F 13.4 °F 9.0 °F 62% 30.21 in 10.0 mi NW 4.6 mph - N/A   Clear
11:32 AM 20.7 °F 14.2 °F 9.0 °F 61% 30.20 in 10.0 mi WNW 4.6 mph - N/A   Clear
12:12 PM 21.7 °F 14.3 °F 9.7 °F 60% 30.20 in 10.0 mi WSW 5.8 mph - N/A   Clear
12:32 PM 22.1 °F 13.7 °F 10.4 °F 61% 30.20 in 10.0 mi West 6.9 mph - N/A   Clear
12:52 PM 23.0 °F 17.0 °F 10.4 °F 59% 30.19 in 10.0 mi West 4.6 mph - N/A   Clear
1:12 PM 23.4 °F 18.9 °F 10.4 °F 58% 30.18 in 10.0 mi WSW 3.5 mph - N/A   Clear
1:32 PM 23.9 °F 15.8 °F 10.9 °F 58% 30.18 in 10.0 mi SW 6.9 mph - N/A   Clear
1:52 PM 23.9 °F 18.0 °F 10.9 °F 58% 30.17 in 10.0 mi SSW 4.6 mph - N/A   Clear
2:12 PM 24.6 °F 17.7 °F 10.8 °F 56% 30.18 in 10.0 mi WSW 5.8 mph - N/A   Clear
2:32 PM 24.6 °F 20.3 °F 10.6 °F 55% 30.19 in 10.0 mi WSW 3.5 mph - N/A   Clear
2:52 PM 24.6 °F 18.8 °F 10.4 °F 55% 30.19 in 10.0 mi WSW 4.6 mph - N/A   Clear
3:12 PM 24.6 °F 20.3 °F 10.4 °F 55% 30.19 in 10.0 mi West 3.5 mph - N/A   Clear
3:32 PM 24.6 °F 18.8 °F 11.1 °F 57% 30.20 in 10.0 mi West 4.6 mph - N/A   Clear
3:52 PM 24.1 °F 18.2 °F 11.3 °F 58% 30.19 in 10.0 mi South 4.6 mph - N/A   Clear
4:12 PM 23.0 °F 17.0 °F 11.3 °F 61% 30.19 in 10.0 mi SSW 4.6 mph - N/A   Clear
4:32 PM 22.1 °F 15.9 °F 11.1 °F 63% 30.19 in 10.0 mi SSW 4.6 mph - N/A   Clear
4:52 PM 21.0 °F 12.4 °F 11.1 °F 66% 30.19 in 10.0 mi South 6.9 mph - N/A   Clear
5:12 PM 19.9 °F 12.1 °F 11.1 °F 69% 30.18 in 10.0 mi South 5.8 mph - N/A   Clear
5:32 PM 19.4 °F 10.4 °F 10.9 °F 70% 30.18 in 10.0 mi SSW 6.9 mph - N/A   Clear
6:12 PM 18.3 °F 11.5 °F 10.4 °F 71% 30.19 in 10.0 mi South 4.6 mph - N/A   Clear
6:32 PM 18.3 °F 13.1 °F 10.9 °F 73% 30.17 in 10.0 mi South 3.5 mph - N/A   Clear
6:52 PM 17.2 °F - 10.6 °F 75% 30.18 in 10.0 mi Calm Calm - N/A   Clear
7:12 PM 17.1 °F 11.7 °F 10.8 °F 76% 30.17 in 10.0 mi SSE 3.5 mph - N/A   Clear
7:32 PM 16.2 °F 10.6 °F 10.2 °F 77% 30.18 in 10.0 mi South 3.5 mph - N/A   Clear
7:52 PM 15.6 °F 8.3 °F 10.2 °F 79% 30.17 in 10.0 mi SSE 4.6 mph - N/A   Clear
8:12 PM 14.9 °F 9.2 °F 9.9 °F 80% 30.16 in 10.0 mi SSE 3.5 mph - N/A   Clear
8:32 PM 14.5 °F 5.7 °F 9.9 °F 82% 30.15 in 10.0 mi SSE 5.8 mph - N/A   Clear
9:12 PM 13.8 °F 6.2 °F 9.5 °F 83% 30.12 in 10.0 mi SSE 4.6 mph - N/A   Clear
9:32 PM 14.4 °F 5.5 °F 10.4 °F 84% 30.11 in 10.0 mi South 5.8 mph - N/A   Clear
9:52 PM 14.4 °F 8.6 °F 9.9 °F 82% 30.10 in 10.0 mi SSE 3.5 mph - N/A   Clear
10:12 PM 14.0 °F 6.5 °F 9.9 °F 84% 30.09 in 10.0 mi SSE 4.6 mph - N/A   Clear
10:32 PM 14.4 °F 5.5 °F 10.0 °F 83% 30.08 in 10.0 mi SE 5.8 mph - N/A   Clear
10:52 PM 14.5 °F 7.1 °F 10.0 °F 82% 30.07 in 10.0 mi SSE 4.6 mph - N/A   Clear
11:32 PM 14.9 °F 9.2 °F 10.6 °F 83% 30.07 in 10.0 mi SSE 3.5 mph - N/A   Clear
11:52 PM 14.9 °F 7.5 °F 10.8 °F 84% 30.05 in 10.0 mi SSE 4.6 mph - N/A   Clear